Location: Brienzwiler
(46.7508°N, 8.1014°E)
Time: 16:41:37
(UTC+00:00)

Cosmos 44 - Pass Details

Date: 05 July 2020
Orbit: 586 x 775 km, 65.1° (Epoch: 10 August)

Event Time Altitude Azimuth Distance (km) Brightness Sun altitude
Exits shadow 23:43:39 26° 251° (WSW) 1,174 4.3 -20.5°
Maximum altitude 23:45:45 48° 312° (NW) 784 3.8 -20.5°
Drops below altitude 10° 23:50:04 10° 28° (NNE) 1,983 6.6 -20.5°
Sets 23:52:27 0° 34° (NE) 2,919 7.6 -20.4°
